Location: Newark
(45.4422°N, 16.2769°E)
Time: 20:58:48
(UTC+00:00)

Courier 1B Rocket - Pass Details

Date: 14 December 2019
Orbit: 920 x 1202 km, 28.2° (Epoch: 28 January)

Event Time Altitude Azimuth Distance (km) Brightness Sun altitude
Rises 06:04:31 0° 242° (WSW) 3,849 7.8 -4.2°
Reaches altitude 10° 06:08:20 10° 224° (SW) 2,834 7.3 -3.6°
Maximum altitude 06:12:32 17° 186° (S) 2,286 7.3 -3.0°
Drops below altitude 10° 06:16:36 10° 147° (SSE) 2,713 8.6 -2.3°
Sets 06:20:08 0° 128° (SE) 3,616 10.9 -1.8°
